Date String (YYYY-MM-DD hh:mm:ss) UTC,Instrument flags,absolute air pressure of the measurement (hPa),sample flow rate (lpm),inlet stack bypass flow (lpm),air temperature of the measurement (°C),ambient temperature measured by the external sensor (°C),aerosol sample conditioner tube jacket temperature (°C),OPC LED temperature (°C),internal box temperature (°C),relative humidity of the measurement (%),span deviation,mass concentration of particles derived from Lorenz-Mie calculation of OPC scattering (μg/m³),mass concentration of particles derived from Lorenz-Mie calculation of OPC scattering (μg/m³),mass concentration of particles derived from Lorenz-Mie calculation of OPC scattering (μg/m³)
DateTimeUTC,F1_M11,P_M11,Q1_M11,Q2_M11,T1_M11,T2_M11,T3_M11,T4_M11,T5_M11,U1_M11,ZSPAN_M11,X0_M11,X2_M11,X1_M11
2023-10-09 13:00:00,SystemResetWarning,0830.0,5.00,000.00,028.5,026.9,000.0,036.9,030.1,12.2,0000.0,0008.52,0003.29,0002.63
2023-10-09 13:01:00,SystemResetWarning,0830.0,5.00,000.00,028.5,026.9,000.0,036.9,030.1,12.3,0000.0,0008.14,0003.26,0002.62
2023-10-09 13:02:00,SystemResetWarning,0830.0,5.00,000.00,028.5,026.9,000.0,036.9,030.1,12.4,0000.0,0008.56,0003.24,0002.60
2023-10-09 13:03:00,SystemResetWarning,0830.0,5.00,000.00,028.5,026.9,000.0,036.9,030.1,12.7,0000.0,0008.64,0003.25,0002.59
2023-10-09 13:04:00,SystemResetWarning,0830.0,5.00,000.00,028.5,026.9,000.0,036.9,030.1,12.6,0000.0,0008.54,0003.26,0002.58
2023-10-09 13:05:00,SystemResetWarning,0830.0,5.00,000.00,028.5,026.9,000.0,036.9,030.1,12.5,0000.0,0008.15,0003.26,0002.56
2023-10-09 13:06:00,SystemResetWarning,0830.0,5.00,000.00,028.5,026.9,000.0,036.9,030.1,12.2,0000.0,0008.10,0003.23,0002.54
2023-10-09 13:07:00,SystemResetWarning,0830.0,5.00,000.00,028.5,026.9,000.0,036.9,030.1,12.2,0000.0,0007.91,0003.22,0002.54
2023-10-09 13:08:00,SystemResetWarning,0830.0,4.99,000.00,028.5,026.9,000.0,036.9,030.1,12.1,0000.0,0007.70,0003.24,0002.55
2023-10-09 13:09:00,SystemResetWarning,0830.0,4.99,000.00,028.5,026.9,000.0,036.9,030.1,12.2,0000.0,0007.67,0003.23,0002.56
2023-10-09 13:10:00,SystemResetWarning,0830.0,5.00,000.00,028.5,026.9,000.0,036.9,030.1,12.2,0000.0,0007.41,0003.22,0002.56
2023-10-09 13:11:00,SystemResetWarning,0830.0,5.00,000.00,028.5,026.9,000.0,036.9,030.1,12.2,0000.0,0007.27,0003.23,0002.58
2023-10-09 13:12:00,SystemResetWarning,0830.0,5.00,000.00,028.5,026.9,000.0,036.9,030.1,12.3,0000.0,0007.25,0003.25,0002.60
2023-10-09 13:13:00,SystemResetWarning,0830.0,5.00,000.00,028.5,026.9,000.0,036.9,030.0,12.2,0000.0,0006.40,0003.25,0002.62
2023-10-09 13:14:00,SystemResetWarning,0830.0,5.00,000.00,028.5,026.9,000.0,036.9,030.0,12.4,0000.0,0006.26,0003.25,0002.64
2023-10-09 13:15:00,SystemResetWarning,0830.0,5.00,000.00,028.4,026.9,000.0,036.9,030.0,12.6,0000.0,0006.03,0003.24,0002.66
2023-10-09 13:16:00,SystemResetWarning,0830.0,5.00,000.00,028.4,026.9,000.0,036.9,030.0,12.6,0000.0,0005.90,0003.25,0002.70
2023-10-09 13:17:00,SystemResetWarning,0830.0,4.99,000.00,028.4,026.9,000.0,036.9,030.0,12.5,0000.0,0005.93,0003.27,0002.73
2023-10-09 13:18:00,SystemResetWarning,0830.0,5.00,000.00,028.4,026.9,000.0,036.9,030.0,12.5,0000.0,0004.85,0003.25,0002.75
2023-10-09 13:19:00,SystemResetWarning,0830.0,5.01,000.00,028.4,026.9,000.0,036.9,030.0,12.5,0000.0,0004.81,0003.24,0002.76
2023-10-09 13:20:00,SystemResetWarning,0830.0,5.00,000.00,028.4,026.9,000.0,036.9,030.0,12.4,0000.0,0004.91,0003.26,0002.78
2023-10-09 13:21:00,SystemResetWarning,0830.0,5.00,000.00,028.4,026.8,000.0,036.9,030.0,12.4,0000.0,0004.79,0003.26,0002.78
2023-10-09 13:22:00,SystemResetWarning,0830.0,4.99,000.00,028.4,026.8,000.0,036.9,030.0,12.3,0000.0,0005.13,0003.32,0002.77
2023-10-09 13:23:00,SystemResetWarning,0830.0,4.99,000.00,028.4,026.8,000.0,036.9,030.0,12.3,0000.0,0006.11,0003.31,0002.76
2023-10-09 13:24:00,SystemResetWarning,0830.1,4.99,000.00,028.4,026.8,000.0,036.9,030.0,12.2,0000.0,0006.41,0003.29,0002.74
2023-10-09 13:25:00,SystemResetWarning,0830.0,5.01,000.00,028.4,026.8,000.0,036.9,030.0,12.2,0000.0,0006.40,0003.29,0002.74
2023-10-09 13:26:00,SystemResetWarning,0830.0,5.01,000.00,028.4,026.8,000.0,036.9,030.0,12.2,0000.0,0006.47,0003.30,0002.72
2023-10-09 13:27:00,SystemResetWarning,0830.0,5.00,000.00,028.4,026.8,000.0,036.9,030.0,12.2,0000.0,0007.25,0003.32,0002.68
2023-10-09 13:28:00,SystemResetWarning,0830.0,5.00,000.00,028.4,026.8,000.0,036.9,030.0,12.2,0000.0,0007.90,0003.30,0002.65
2023-10-09 13:29:00,SystemResetWarning,0830.0,5.00,000.00,028.4,026.8,000.0,036.9,030.0,12.3,0000.0,0008.41,0003.29,0002.61
2023-10-09 13:30:00,SystemResetWarning,0830.0,5.00,000.00,028.4,026.8,000.0,036.8,030.0,12.3,0000.0,0008.96,0003.28,0002.58
2023-10-09 13:31:00,SystemResetWarning,0830.0,5.00,000.00,028.4,026.8,000.0,036.8,030.0,12.3,0000.0,0008.99,0003.25,0002.55
2023-10-09 13:32:00,SystemResetWarning,0830.0,5.00,000.00,028.4,026.8,000.0,036.8,030.0,12.3,0000.0,0009.17,0003.22,0002.53
2023-10-09 13:33:00,SystemResetWarning,0830.0,5.00,000.00,028.4,026.8,000.0,036.8,030.0,12.3,0000.0,0009.26,0003.18,0002.51
2023-10-09 13:34:00,SystemResetWarning,0830.0,5.00,000.00,028.4,026.8,000.0,036.8,030.0,12.3,0000.0,0009.37,0003.20,0002.51
2023-10-09 13:35:00,SystemResetWarning,0830.0,5.00,000.00,028.4,026.8,000.0,036.8,030.0,12.4,0000.0,0009.17,0003.22,0002.52
2023-10-09 13:36:00,SystemResetWarning,0830.0,5.00,000.00,028.4,026.8,000.0,036.8,030.0,12.4,0000.0,0009.22,0003.23,0002.53
2023-10-09 13:37:00,SystemResetWarning,0830.0,5.01,000.00,028.4,026.8,000.0,036.8,030.0,12.5,0000.0,0009.31,0003.27,0002.55
2023-10-09 13:38:00,SystemResetWarning,0830.0,5.00,000.00,028.4,026.8,000.0,036.8,030.0,12.6,0000.0,0009.39,0003.27,0002.57
2023-10-09 13:39:00,SystemResetWarning,0830.0,5.00,000.00,028.4,026.8,000.0,036.8,030.0,12.6,0000.0,0009.53,0003.28,0002.56
2023-10-09 13:40:00,SystemResetWarning,0830.0,5.00,000.00,028.3,026.8,000.0,036.8,030.0,12.6,0000.0,0008.74,0003.26,0002.56
2023-10-09 13:41:00,SystemResetWarning,0830.0,5.00,000.00,028.3,026.8,000.0,036.8,030.0,12.6,0000.0,0008.40,0003.25,0002.55
2023-10-09 13:42:00,SystemResetWarning,0830.0,5.00,000.00,028.3,026.8,000.0,036.8,030.0,12.6,0000.0,0008.19,0003.28,0002.55
2023-10-09 13:43:00,SystemResetWarning,0830.1,5.00,000.00,028.3,026.8,000.0,036.8,030.0,12.6,0000.0,0008.09,0003.29,0002.58
2023-10-09 13:44:00,SystemResetWarning,0830.0,5.00,000.00,028.3,026.8,000.0,036.8,030.0,12.7,0000.0,0007.97,0003.30,0002.61
2023-10-09 13:45:00,SystemResetWarning,0830.0,5.00,000.00,028.4,026.8,000.0,036.8,030.0,12.7,0000.0,0007.66,0003.31,0002.65
2023-10-09 13:46:00,SystemResetWarning,0830.0,5.00,000.00,028.4,026.8,000.0,036.8,030.0,12.7,0000.0,0007.42,0003.33,0002.68
2023-10-09 13:47:00,SystemResetWarning,0830.1,5.00,000.00,028.4,026.8,000.0,036.8,030.0,12.7,0000.0,0007.51,0003.35,0002.71
2023-10-09 13:48:00,SystemResetWarning,0830.1,5.00,000.00,028.4,026.8,000.0,036.8,030.0,12.7,0000.0,0007.54,0003.37,0002.72
2023-10-09 13:49:00,SystemResetWarning,0830.0,5.00,000.00,028.4,026.8,000.0,036.8,030.0,12.8,0000.0,0007.55,0003.36,0002.72
2023-10-09 13:50:00,SystemResetWarning,0830.0,5.00,000.00,028.4,026.9,000.0,036.8,030.0,12.8,0000.0,0006.49,0003.35,0002.75
2023-10-09 13:51:00,SystemResetWarning,0830.0,5.00,000.00,028.4,026.9,000.0,036.8,030.1,12.7,0000.0,0006.37,0003.37,0002.79
2023-10-09 13:52:00,SystemResetWarning,0830.0,5.00,000.00,028.4,026.9,000.0,036.8,030.1,12.7,0000.0,0006.36,0003.38,0002.81
2023-10-09 13:53:00,SystemResetWarning,0830.0,5.00,000.00,028.4,026.9,000.0,036.8,030.0,12.7,0000.0,0006.20,0003.36,0002.82
2023-10-09 13:54:00,SystemResetWarning,0830.0,5.01,000.00,028.4,026.9,000.0,036.8,030.0,12.7,0000.0,0006.70,0003.37,0002.81
2023-10-09 13:55:00,SystemResetWarning,0830.0,5.01,000.00,028.4,026.9,000.0,036.8,030.0,12.8,0000.0,0007.26,0003.39,0002.79
2023-10-09 13:56:00,SystemResetWarning,0830.0,4.99,000.00,028.4,026.9,000.0,036.8,030.0,12.8,0000.0,0007.39,0003.38,0002.77
2023-10-09 13:57:00,SystemResetWarning,0830.0,4.99,000.00,028.4,026.9,000.0,036.8,030.0,12.8,0000.0,0008.13,0003.37,0002.74
2023-10-09 13:58:00,SystemResetWarning,0830.0,4.99,000.00,028.4,026.9,000.0,036.8,030.0,12.8,0000.0,0007.97,0003.32,0002.70
2023-10-09 13:59:00,SystemResetWarning,0830.0,5.01,000.00,028.4,026.9,000.0,036.8,030.0,12.9,0000.0,0007.94,0003.31,0002.68
